Weather History for KALB - December, 2012

Change the Weather History Date:

Sunday, December 9, 2012

  Actual Average Record
Temperature  
Mean Temperature 41 °F 31 °F  
Max Temperature 46 °F 38 °F 62 °F (1966)
Min Temperature 35 °F 24 °F -11 °F (1902)
Degree Days  
Heating Degree Days 24 34  
Month to date heating degree days 253 293  
Since 1 July heating degree days 1541 1697  
Cooling Degree Days 0 0  
Month to date cooling degree days 0 0  
Year to date cooling degree days 814 598  
Moisture  
Dew Point 31 °F    
Average Humidity 73    
Maximum Humidity 92    
Minimum Humidity 53    
Precipitation  
Precipitation 0.08 in 0.11 in 1.60 in (2014)
Month to date precipitation 0.72 0.95  
Year to date precipitation 33.66 37.37  
Snow  
Snow 0.00 in 0.40 in 7.30 in (2009)
Month to date snowfall 0.7 3.1  
Since 1 July snowfall 0.8 5.9  
Snow Depth 0.00 in    
Sea Level Pressure  
Sea Level Pressure 30.20 in    
Wind  
Wind Speed 7 mph (NNW)    
Max Wind Speed 21 mph    
Max Gust Speed 25 mph    
Visibility 10 miles    
Events Rain    
T = Trace of Precipitation, MM = Missing Value Source: NWS Daily Summary

Daily Weather History Graph

Daily Weather History Graph

Search for Another Location

Airport or City:

Trip Planner

Search our weather history database for the weather conditions in past years. The results will help you decide how hot, cold, wet, or windy it might be!

Date:

Astronomy

Dec. 09, 2012 Rise Set
Actual Time 7:14 AM EST 4:21 PM EST
Civil Twilight 6:42 AM EST 4:53 PM EST
Nautical Twilight 6:06 AM EST 5:28 PM EST
Astronomical Twilight 5:32 AM EST 6:03 PM EST
Moon 2:39 AM EST (12/9) 1:30 PM EST (12/9)
Length of Visible Light 10h 11m
Length of Day
9h 07m
Waning Crescent, 19% of the Moon is Illuminated
Dec 9
Waning Crescent
Dec 13
New
Dec 20
First Quarter
Dec 28
Full
Jan 4
Last Quarter

Hourly Weather History & Observations

Time (EST) Temp. Windchill Dew Point Humidity Pressure Visibility Wind Dir Wind Speed Gust Speed Precip Events Conditions
12:51 AM 46.0 °F 39.9 °F 39.0 °F 76% 30.06 in 10.0 mi WNW 13.8 mph - N/A   Mostly Cloudy
1:51 AM 44.1 °F 38.1 °F 37.0 °F 76% 30.09 in 10.0 mi NW 11.5 mph - N/A   Scattered Clouds
2:51 AM 42.1 °F 34.9 °F 35.1 °F 76% 30.12 in 10.0 mi West 13.8 mph - N/A   Scattered Clouds
3:51 AM 39.9 °F 31.1 °F 32.0 °F 73% 30.14 in 10.0 mi West 17.3 mph 25.3 mph N/A   Scattered Clouds
4:51 AM 39.0 °F 31.8 °F 30.0 °F 70% 30.19 in 10.0 mi WNW 11.5 mph 19.6 mph N/A   Scattered Clouds
5:51 AM 37.4 °F 28.9 °F 28.4 °F 70% 30.21 in 10.0 mi WNW 13.8 mph - N/A   Mostly Cloudy
6:51 AM 37.9 °F 32.1 °F 28.9 °F 70% 30.25 in 10.0 mi NW 8.1 mph - N/A   Mostly Cloudy
7:51 AM 37.0 °F 33.3 °F 28.9 °F 73% 30.28 in 10.0 mi WNW 4.6 mph - N/A   Mostly Cloudy
8:51 AM 37.9 °F 32.1 °F 30.9 °F 76% 30.29 in 10.0 mi NNW 8.1 mph - N/A   Mostly Cloudy
9:51 AM 39.0 °F 35.7 °F 30.9 °F 73% 30.30 in 10.0 mi NNW 4.6 mph - N/A   Mostly Cloudy
10:51 AM 39.9 °F - 28.9 °F 65% 30.30 in 10.0 mi Calm Calm - N/A   Mostly Cloudy
11:51 AM 42.1 °F 40.2 °F 28.0 °F 58% 30.27 in 10.0 mi Variable 3.5 mph - N/A   Mostly Cloudy
12:51 PM 44.1 °F 40.8 °F 28.0 °F 53% 30.25 in 10.0 mi North 5.8 mph - N/A   Mostly Cloudy
1:51 PM 44.1 °F 40.8 °F 28.0 °F 53% 30.24 in 10.0 mi Variable 5.8 mph - N/A   Mostly Cloudy
2:51 PM 42.8 °F 39.3 °F 28.4 °F 57% 30.23 in 10.0 mi NNE 5.8 mph - N/A   Mostly Cloudy
3:51 PM 39.9 °F 37.8 °F 28.9 °F 65% 30.25 in 10.0 mi ENE 3.5 mph - N/A   Mostly Cloudy
4:51 PM 39.9 °F 36.7 °F 28.9 °F 65% 30.25 in 10.0 mi NNE 4.6 mph - N/A   Mostly Cloudy
5:51 PM 39.0 °F 34.0 °F 30.0 °F 70% 30.24 in 10.0 mi NNE 6.9 mph - N/A   Mostly Cloudy
6:51 PM 37.9 °F 32.7 °F 30.0 °F 73% 30.23 in 10.0 mi NNE 6.9 mph - N/A   Overcast
7:51 PM 37.0 °F 32.4 °F 30.0 °F 76% 30.20 in 10.0 mi NE 5.8 mph - N/A   Overcast
8:51 PM 36.0 °F 33.3 °F 30.0 °F 79% 30.17 in 10.0 mi ENE 3.5 mph - N/A   Overcast
9:51 PM 35.1 °F - 30.9 °F 85% 30.14 in 10.0 mi Calm Calm - 0.00 in Rain Light Rain
10:43 PM 35.6 °F - 33.8 °F 93% 30.11 in 8.0 mi Calm Calm - 0.04 in Rain Light Rain
10:51 PM 36.0 °F 33.3 °F 34.0 °F 93% 30.11 in 8.0 mi ESE 3.5 mph - 0.04 in Rain Light Rain
11:51 PM 37.9 °F 32.7 °F 35.1 °F 89% 30.07 in 10.0 mi South 6.9 mph - 0.04 in Rain Light Rain